[[{"header":{"parameterUnit":"m.s-1","parameterCategory":1,"la1":30.2991,"la2":30.254,"lo1":-89.0895,"lo2":-89.0444,"dy":0.0017,"dx":0.0017,"nx":28,"ny":28,"refTime":"2023-04-20T21:00:00:Z","depth":0,"parameterNumber":2,"parameterNumberName":"U-component_of_WINDS"},"data":[0,0,0,0,0,0,0,0,0,0,0,0,0,0,0,0,0,0,0,0,0,0,0,0,0,0,0,0,0,0,0,0,0,0,0,0,0,0,0,0,0,0,0,0,0,0,0,0,0,0,0,0,0,0,0,0,0,0,-2.9892,-2.9893,0,-2.9959,-2.996,-2.9961,-2.9922,-2.9921,-2.9919,-2.9917,-2.9986,-2.9989,-2.9993,0,0,0,0,0,0,0,0,0,0,0,0,0,-2.9733,-2.9736,-2.9892,-2.9893,-2.9894,-2.9959,-2.996,-2.9961,-2.9923,-2.9921,-2.9918,-2.9916,-2.9985,-2.9989,-2.9993,0,0,0,0,0,0,0,0,0,0,0,0,0,-2.9801,-2.9737,-2.9892,-2.9883,-2.9883,-2.9959,-2.996,-2.9961,-2.9923,-2.992,-2.9918,-2.9915,-2.9983,-2.9988,-2.9994,-3.0083,0,0,-3.001,-3.0012,0,0,0,0,0,0,0,0,-2.9798,-2.9807,-2.9883,-2.9884,-2.9884,-2.993,-2.9929,-3.0002,-2.9924,-2.9908,-2.9917,-2.9914,-2.9969,-2.9976,-2.9994,-3.0086,-3.0089,-3.001,-3.0014,-3.0016,-3.0017,0,0,0,0,0,0,0,-2.9793,-2.9804,-2.9919,-2.9885,-2.9885,-2.9876,-2.9882,-2.9943,-2.9954,-2.9909,-2.9906,-2.9915,-2.9969,-2.9989,-2.9996,-3.009,-3.001,-3.0015,-3.0018,-3.002,-3.0258,-3.0261,0,0,0,0,0,0,-2.9789,-2.98,-2.9917,-2.9921,-2.9833,-2.9881,-2.9888,-2.9918,-2.9953,-2.9955,-2.9917,-2.9913,-2.9981,-2.9989,-2.9998,-3.0104,-3.0016,-3.0021,-3.0024,-3.0255,-3.0259,-3.0262,0,0,0,0,0,0,-2.9785,-2.9799,-2.9914,-2.986,-2.9874,-2.9887,-2.992,-2.992,-2.9941,-2.9959,-2.9961,-2.9936,-2.998,-2.999,-3.0062,-3.0106,-3.0023,-3.0028,-3.0252,-3.0257,-3.0261,-3.0318,0,0,0,0,0,0,-2.9781,-2.9798,-2.9832,-2.9861,-2.9877,-2.9977,-2.9923,-2.9924,-2.995,-2.9945,-2.9977,-2.998,-2.9978,-3.0054,-3.0067,-3.0112,-3.0032,-3.0248,-3.0254,-3.0259,-3.0312,-3.0324,-3.0334,0,0,0,0,0,-2.9775,-2.9846,-2.9834,-2.9848,-2.9919,-2.9979,-2.9988,-2.9985,-2.9954,-2.9988,-3.0,-2.9979,-3.01,-3.0062,-3.0076,-3.0123,-3.0245,-3.0252,-3.0259,-3.0307,-3.0322,-3.0334,0,0,0,0,0,0,-2.9821,-2.9849,-2.9837,-2.9918,-2.9947,-2.9973,-3.0015,-3.0001,-3.0039,-3.0032,-3.0027,-3.0035,-3.0109,-3.0124,-3.0081,-3.0212,-3.0167,-3.0178,-3.0199,-3.0213,-3.0224,-3.0219,-3.0037,0,0,0,0,0,-2.9841,-2.9887,-2.9909,-2.9979,-2.9994,-3.0003,-3.0029,-3.0024,-3.0053,-3.0065,-3.0082,-3.0112,-3.0156,-3.0186,-3.0228,-3.0315,-3.0321,-3.0354,-3.0365,-3.0374,-3.0383,-3.043,-3.0445,-3.0285,-3.0285,-3.0285,0,0,-2.9882,-2.9903,-2.9932,-2.9989,-3.001,-3.0059,-3.0013,-3.0066,-3.0102,-3.0073,-3.0141,-3.0155,-3.0188,-3.0268,-3.0304,-3.0282,-3.0429,-3.0383,-3.039,-3.0394,-3.0439,-3.0454,-3.0467,-3.029,-3.0289,-3.0289,0,0,-2.9981,-3.0002,-3.0062,-3.0085,-3.0118,-3.0123,-3.0138,-3.0167,-3.0175,-3.0244,-3.0223,-3.0266,-3.0343,-3.0368,-3.039,-3.05,-3.0482,-3.0514,-3.0571,-3.0617,-3.063,-3.0641,-3.0679,-3.0694,-3.0523,-3.0523,-3.0523,0,-3.0028,-3.0099,-3.0095,-3.015,-3.0175,-3.0152,-3.0214,-3.0236,-3.0282,-3.03,-3.0275,-3.0372,-3.0392,-3.0477,-3.0504,-3.0523,-3.054,-3.0509,-3.0628,-3.0639,-3.0649,-3.0686,-3.0701,-3.0526,-3.0526,-3.0526,-3.0525,0,-3.0155,-3.0205,-3.025,-3.0294,-3.0325,-3.0383,-3.0388,-3.042,-3.0413,-3.0421,-3.0492,-3.0516,-3.0562,-3.0582,-3.0576,-3.0667,-3.0653,-3.0628,-3.0583,-3.0668,-3.0703,-3.0717,-3.0532,-3.053,-3.0529,-3.0528,0,0,-3.0284,-3.0326,-3.0342,-3.0362,-3.0398,-3.0436,-3.0494,-3.0539,-3.0567,-3.0599,-3.0647,-3.0714,-3.0691,-3.0717,-3.0713,-3.0754,-3.0839,-3.0725,-3.0725,-3.0745,-3.0941,-3.0958,-3.0975,-3.0828,-3.0831,-3.0833,-3.0938,0,-3.0384,-3.0484,-3.0482,-3.0574,-3.062,-3.06,-3.065,-3.0677,-3.0687,-3.0728,-3.0739,-3.0786,-3.0753,-3.0768,-3.0808,-3.0821,-3.0879,-3.0813,-3.0873,-3.0875,-3.0864,-3.0993,-3.1011,-3.1109,-3.0952,-3.0954,-3.0956,0,-3.0515,-3.0552,-3.0649,-3.0678,-3.0697,-3.0742,-3.0784,-3.0823,-3.0855,-3.0859,-3.0888,-3.0878,-3.0937,-3.0892,-3.0972,-3.0928,-3.0952,-3.0963,-3.0966,-3.0971,-3.0919,-3.1,-3.114,-3.1155,-3.0977,-3.0975,-3.0974,0,-3.0598,-3.0672,-3.074,-3.0758,-3.0794,-3.0825,-3.0842,-3.087,-3.0898,-3.0935,-3.0953,-3.0997,-3.1021,-3.1055,-3.1058,-3.1024,-3.1139,-3.1094,-3.1144,-3.1144,-3.1168,-3.1167,-3.1313,-3.1186,-3.1186,-3.1185,-3.1185,0,-3.0711,-3.0771,-3.0778,-3.0819,-3.0886,-3.0884,-3.095,-3.0964,-3.099,-3.1034,-3.1019,-3.1061,-3.1062,-3.1105,-3.1108,-3.1175,-3.1186,-3.1191,-3.1191,-3.1192,-3.1191,-3.1207,-3.12,-3.1189,-3.1188,-3.1188,-3.1187,0,-3.0815,-3.0822,-3.0894,-3.0922,-3.0931,-3.0979,-3.1003,-3.1043,-3.1051,-3.1108,-3.1121,-3.1134,-3.1184,-3.1191,-3.1249,-3.1251,-3.1331,-3.1324,-3.132,-3.1319,-3.1369,-3.1364,-3.153,-3.1552,-3.1411,-3.1412,-3.1413,0,-3.0885,-3.0931,-3.0964,-3.0992,-3.1011,-3.1057,-3.1085,-3.1085,-3.1115,-3.1155,-3.119,-3.1239,-3.1277,-3.1358,-3.1374,-3.1418,-3.1412,-3.1467,-3.1419,-3.1418,-3.1412,-3.1409,-3.1414,-3.1476,-3.1478,-3.1479,-3.148,0,-3.101,-3.1011,-3.1052,-3.1095,-3.1129,-3.1163,-3.1195,-3.1219,-3.1224,-3.1259,-3.1309,-3.1339,-3.1399,-3.1448,-3.1492,-3.151,-3.1496,-3.1496,-3.151,-3.151,-3.1506,-3.1509,-3.1345,-3.1491,-3.149,-3.149,-3.1489,-3.1488,-3.1099,-3.1139,-3.1168,-3.1215,-3.1239,-3.1269,-3.1308,-3.1321,-3.1363,-3.1412,-3.141,-3.1466,-3.1497,-3.1555,-3.1576,-3.162,-3.1602,-3.1622,-3.1627,-3.1632,-3.1637,-3.15,-3.1628,-3.1628,-3.1628,-3.1627,-3.1627,0,-3.1223,-3.1241,-3.1284,-3.1328,-3.1365,-3.1349,-3.1384,-3.1416,-3.1465,-3.1495,-3.1533,-3.1592,-3.1639,-3.1659,-3.1705,-3.1737,-3.1732,-3.1749,-3.1746,-3.175,-3.165,-3.1633,-3.1752,-3.1752,-3.1752,-3.1752,-3.1752,-3.1752,-3.1291,-3.1357,-3.1362,-3.144,-3.1458,-3.1513,-3.1534,-3.1562,-3.1585,-3.1651,-3.169,-3.1703,-3.1729,-3.1777,-3.182,-3.1824,-3.1842,-3.1862,-3.1864,-3.177,-3.1757,-3.1745,-3.1729,-3.1866,-3.1866,-3.196,-3.1961,-3.1961]},{"header":{"parameterUnit":"m.s-1","parameterCategory":1,"la1":30.2991,"la2":30.254,"lo1":-89.0895,"lo2":-89.0444,"dy":0.0017,"dx":0.0017,"nx":28,"ny":28,"refTime":"2023-04-20T21:00:00:Z","depth":0,"parameterNumber":3,"parameterNumberName":"V-component_of_WINDS"},"data":[0,0,0,0,0,0,0,0,0,0,0,0,0,0,0,0,0,0,0,0,0,0,0,0,0,0,0,0,0,0,0,0,0,0,0,0,0,0,0,0,0,0,0,0,0,0,0,0,0,0,0,0,0,0,0,0,0,0,2.8532,2.8533,0,2.8633,2.8634,2.8635,2.8627,2.8626,2.8624,2.8623,2.8723,2.8727,2.8731,0,0,0,0,0,0,0,0,0,0,0,0,0,2.8331,2.8335,2.8532,2.8533,2.8534,2.8632,2.8634,2.8635,2.8628,2.8626,2.8624,2.8622,2.8722,2.8726,2.8731,0,0,0,0,0,0,0,0,0,0,0,0,0,2.8423,2.8336,2.8532,2.8543,2.8544,2.8632,2.8634,2.8636,2.8628,2.8626,2.8624,2.8622,2.872,2.8726,2.8732,2.8814,0,0,2.875,2.8753,0,0,0,0,0,0,0,0,2.8418,2.8431,2.854,2.8542,2.8544,2.8615,2.86,2.8695,2.8629,2.8596,2.8623,2.862,2.8689,2.8697,2.8721,2.8819,2.8823,2.8751,2.8755,2.8757,2.8759,0,0,0,0,0,0,0,2.8412,2.8426,2.8572,2.8541,2.8544,2.8542,2.8552,2.8618,2.8654,2.8599,2.8599,2.8611,2.8689,2.8715,2.8723,2.8825,2.8751,2.8756,2.876,2.8762,2.8996,2.8999,0,0,0,0,0,0,2.8403,2.8421,2.8568,2.8575,2.8475,2.8547,2.8559,2.8595,2.8653,2.866,2.8613,2.861,2.8706,2.8716,2.8727,2.8828,2.8757,2.8763,2.8766,2.8994,2.8997,2.9,0,0,0,0,0,0,2.8399,2.8416,2.8564,2.8498,2.8517,2.8553,2.8593,2.8598,2.8623,2.8663,2.8669,2.8632,2.8704,2.8718,2.8793,2.8831,2.8766,2.8771,2.8991,2.8995,2.8998,2.903,0,0,0,0,0,0,2.8393,2.8415,2.8447,2.8499,2.852,2.863,2.8595,2.8601,2.8634,2.8632,2.8683,2.869,2.8704,2.8784,2.8799,2.8838,2.8776,2.8987,2.8992,2.8997,2.9025,2.9034,2.9042,0,0,0,0,0,2.8386,2.8451,2.8449,2.8466,2.8561,2.8632,2.8644,2.866,2.8637,2.867,2.8696,2.8688,2.8824,2.8792,2.8809,2.885,2.8985,2.8991,2.8997,2.9022,2.9032,2.9041,0,0,0,0,0,0,2.8401,2.8458,2.8456,2.854,2.8581,2.863,2.8672,2.867,2.8718,2.8714,2.873,2.8742,2.8817,2.8841,2.8804,2.8933,2.8902,2.8911,2.8915,2.8925,2.8933,2.8926,2.8781,0,0,0,0,0,2.8415,2.8468,2.8514,2.8584,2.8605,2.8635,2.8666,2.8675,2.8718,2.8735,2.8766,2.8808,2.886,2.8894,2.8944,2.9029,2.904,2.9066,2.9074,2.908,2.9088,2.9136,2.9148,2.9019,2.9019,2.9018,0,0,2.8442,2.848,2.8512,2.8588,2.8621,2.8676,2.8649,2.8708,2.8749,2.8744,2.8817,2.8841,2.8889,2.8969,2.9006,2.8991,2.9127,2.9088,2.9093,2.9097,2.9143,2.9155,2.9166,2.9022,2.9022,2.9021,0,0,2.8521,2.8554,2.8616,2.8651,2.8702,2.8722,2.8736,2.8787,2.8803,2.8877,2.8875,2.8923,2.9012,2.9047,2.9076,2.9169,2.9164,2.9184,2.9227,2.9273,2.9283,2.9292,2.9325,2.9337,2.9192,2.9192,2.9192,0,2.8548,2.8631,2.8648,2.8708,2.8741,2.8741,2.8804,2.8836,2.89,2.8923,2.8906,2.9019,2.9051,2.914,2.9163,2.9186,2.9203,2.9178,2.928,2.9289,2.9298,2.933,2.9343,2.9195,2.9194,2.9194,2.9194,0,2.8663,2.8721,2.8764,2.8828,2.8867,2.8927,2.8953,2.899,2.8995,2.9017,2.9092,2.9131,2.9189,2.9211,2.9216,2.9301,2.929,2.9277,2.9245,2.9312,2.9343,2.9355,2.9198,2.9197,2.9196,2.9196,0,0,2.8753,2.8827,2.8842,2.8872,2.8929,2.8973,2.9034,2.9093,2.9124,2.9169,2.922,2.9297,2.9285,2.9318,2.9327,2.9368,2.944,2.9349,2.935,2.9365,2.9536,2.9546,2.956,2.9437,2.944,2.9441,2.9532,0,2.8837,2.8947,2.8964,2.906,2.9113,2.9114,2.9167,2.9208,2.923,2.9278,2.9302,2.9356,2.9336,2.9356,2.9396,2.9423,2.9474,2.9416,2.9485,2.9487,2.9473,2.9576,2.9587,2.9671,2.9544,2.9546,2.9548,0,2.895,2.9,2.9101,2.9152,2.9175,2.9223,2.9278,2.9325,2.9371,2.9384,2.9422,2.9426,2.9489,2.9456,2.9543,2.9503,2.9532,2.9549,2.9553,2.956,2.9521,2.9586,2.9698,2.9711,2.9567,2.9565,2.9564,0,2.9007,2.9098,2.9171,2.9196,2.9257,2.9291,2.9317,2.9361,2.9396,2.9444,2.9467,2.9521,2.9551,2.9593,2.9613,2.9586,2.9699,2.9666,2.9711,2.9711,2.9735,2.9733,2.9853,2.9753,2.9753,2.9753,2.9752,0,2.9099,2.9161,2.9197,2.9242,2.9312,2.9331,2.9399,2.9425,2.9464,2.9514,2.9517,2.9564,2.9587,2.9636,2.9652,2.9722,2.9735,2.9747,2.9751,2.9747,2.9746,2.9767,2.9761,2.9756,2.9755,2.9755,2.9754,0,2.9174,2.9201,2.928,2.9332,2.9346,2.9395,2.9439,2.9483,2.9505,2.9567,2.9583,2.9617,2.9676,2.97,2.9772,2.9782,2.9863,2.9862,2.9848,2.9849,2.9893,2.9889,3.003,3.005,2.9937,2.9938,2.9939,0,2.9232,2.928,2.9337,2.9371,2.9399,2.9454,2.9489,2.951,2.9547,2.9604,2.964,2.9699,2.9748,2.9842,2.9873,2.9928,2.9928,2.9974,2.9936,2.9931,2.9929,2.9926,2.9931,2.9981,2.9982,2.9983,2.9983,0,2.9331,2.9342,2.9394,2.9451,2.9493,2.9539,2.9583,2.961,2.9638,2.9679,2.974,2.9778,2.9852,2.991,2.9967,2.9994,2.9994,2.9995,3.0009,3.0006,2.9996,3.0002,2.9867,2.9992,2.9991,2.999,2.999,2.999,2.9399,2.9443,2.949,2.9548,2.9583,2.9625,2.9669,2.9697,2.9748,2.9811,2.982,2.9885,2.993,3.0007,3.0037,3.0088,3.0076,3.0095,3.01,3.0105,3.0108,2.9988,3.0098,3.0098,3.0098,3.0097,3.0097,0,2.95,2.9531,2.9583,2.9646,2.9691,2.9688,2.9737,2.9775,2.9833,2.9876,2.9924,2.9994,3.0051,3.0087,3.0145,3.0179,3.018,3.0193,3.0191,3.0198,3.0115,3.0098,3.0191,3.0191,3.0191,3.0191,3.0191,3.0191,2.9557,2.963,2.9647,2.9738,2.9768,2.9833,2.9861,2.99,2.9934,3.0013,3.0061,3.0084,3.0125,3.0186,3.0238,3.0247,3.0268,3.0283,3.0291,3.0213,3.0203,3.0194,3.0178,3.0287,3.0287,3.0369,3.037,3.0371]}]]